Powrót do katalogu

CZ-6A DEB

AktywnySSO
NORAD 54511·DEBRIS·🇨🇳 China

Wystrzelony Nov 11, 2022 z Taiyuan Satellite Launch Center

Loading…

Następne Przeloty (najbliższe 24 godziny)

TLE

ŚwieżeSource: Space-Track

Epoka: Sep 14, 2026, 08:55 UTC

1 54511U 22151JP  26257.37160812  .00000003  00000-0  31618-4 0  9993
2 54511  98.9180 224.0739 0129719 207.4672 151.9593 13.94940230195145

Śledź CZ-6A DEB w czasie rzeczywistym z AllMySat

Download on the App Store